Wind_Speed
38 37 35 34 35 35 35 34 33 33 34 34 33 32 33 32 32 34 36 36 35 33 28 28 30 29 30 29 27 25 23 20 19 19 20 20 18 14 18 22 24 29 29 27 26 25 25 26 27 28 29 30 30 30 30 31 31 30 30 31 33 34 31 28 26 23 21 18 17 18 18 20 22 22 22 21 20 18 19 21 19 16 15 14 15 17
39 37 35 35 35 35 34 33 33 33 33 33 32 32 32 32 32 34 36 36 35 35 33 33 33 31 32 31 27 25 23 21 20 20 20 21 19 18 22 25 26 29 28 26 26 25 25 25 26 28 29 30 30 31 31 31 32 32 32 31 33 36 35 32 29 25 23 20 19 19 20 22 23 22 22 22 21 20 19 20 19 18 17 17 17 18
39 37 35 34 34 35 33 32 32 32 32 32 32 32 32 32 32 33 34 35 35 34 34 35 35 33 31 29 26 24 23 21 20 19 19 20 20 20 22 24 26 27 26 26 25 24 25 25 26 27 29 30 31 31 31 32 32 32 33 32 33 36 37 36 32 28 25 23 21 21 21 23 24 23 21 22 23 22 21 21 21 21 20 20 20 21
38 36 34 34 34 34 33 32 32 32 32 32 32 31 31 31 30 28 31 35 35 34 35 34 30 29 28 26 26 25 21 20 18 18 18 18 18 19 20 21 23 24 24 24 24 24 24 25 26 27 29 30 31 32 32 32 33 33 33 32 33 34 37 37 35 30 28 26 25 24 23 23 23 22 21 21 22 23 23 22 23 23 23 22 22 24
37 35 34 33 34 33 32 33 33 33 32 32 31 30 30 31 30 29 31 35 35 33 34 30 22 22 26 26 26 23 19 18 17 16 16 16 16 16 17 19 20 21 22 22 22 23 23 24 26 27 28 30 31 32 32 32 33 33 33 33 33 34 36 37 35 32 29 28 28 27 26 24 23 23 22 22 22 23 23 22 23 24 24 23 23 24
35 34 33 33 33 32 32 33 33 33 33 32 31 30 30 31 31 31 32 34 33 31 31 27 22 23 25 24 22 21 18 17 16 15 15 15 15 15 15 16 17 18 19 19 20 21 22 23 25 26 28 29 31 32 32 33 33 34 34 34 34 34 35 37 36 33 31 29 29 29 28 26 25 24 24 24 24 25 25 24 23 24 24 24 23 23
34 33 33 33 32 32 32 33 34 34 32 31 30 29 30 30 31 32 33 33 29 27 28 26 23 22 23 22 21 19 17 15 15 14 13 13 13 13 14 14 14 14 15 16 17 18 20 21 23 24 26 28 30 31 32 33 33 34 35 36 36 35 36 37 37 36 34 31 30 30 30 29 28 27 26 26 26 26 26 26 26 26 26 25 24 23
33 32 33 32 31 32 32 33 34 33 32 31 30 30 30 30 31 32 33 32 25 23 26 23 20 20 19 20 20 18 16 13 13 13 11 12 12 12 12 12 12 11 12 13 14 15 17 19 20 22 24 26 28 29 31 32 34 35 36 37 38 37 36 37 38 39 38 35 33 31 32 31 30 29 28 28 28 28 29 30 30 29 28 26 25 25
32 32 32 31 31 31 32 33 33 32 31 30 30 30 30 31 32 32 32 29 24 22 22 19 19 20 17 18 18 16 14 12 11 11 11 11 11 11 11 11 12 11 10 11 12 13 15 16 18 20 22 23 25 27 28 30 33 35 37 38 39 39 39 38 38 40 40 40 37 34 33 33 32 31 31 30 30 30 31 32 34 33 31 29 28 27
31 31 31 30 30 31 32 33 33 31 30 30 30 30 30 30 31 31 29 24 21 20 18 16 19 19 16 17 18 16 14 12 11 10 10 10 10 10 10 10 11 11 10 10 11 12 13 15 16 18 20 21 23 24 26 28 30 33 36 38 39 40 40 40 39 40 41 42 42 39 36 35 35 34 33 33 33 33 32 32 34 35 34 32 30 29
31 31 31 30 30 31 32 32 32 30 29 29 29 29 29 29 29 27 23 19 18 17 14 15 19 18 15 14 16 15 11 10 10 9 9 9 8 8 9 10 11 11 11 10 10 12 13 14 15 17 18 19 21 22 24 25 27 29 33 36 38 40 41 41 41 41 42 43 43 43 41 38 38 37 35 35 36 37 35 31 32 35 37 35 32 31
30 30 30 30 30 31 32 31 30 29 29 29 28 26 24 26 25 22 18 16 16 15 14 16 18 16 15 14 13 12 10 8 8 9 8 7 7 7 8 8 9 10 9 9 10 12 13 14 15 15 16 17 19 20 22 24 25 26 29 32 35 37 39 41 42 42 43 43 44 45 45 43 41 41 40 38 38 39 39 34 31 33 38 39 37 35
30 30 29 29 30 31 31 30 29 29 29 29 27 23 20 21 21 19 17 15 14 14 15 17 16 13 12 12 12 13 13 10 8 8 8 7 7 7 7 7 7 7 7 8 9 11 13 13 15 16 15 15 16 18 20 22 24 25 26 28 30 33 36 38 40 41 42 44 45 47 48 47 45 45 45 43 41 40 41 40 35 33 35 38 40 39
29 29 29 28 29 30 29 28 29 29 29 29 25 19 17 18 18 17 15 14 13 13 14 15 14 12 11 12 14 15 15 13 12 11 10 9 9 8 8 8 7 6 5 6 8 10 12 12 14 16 17 17 16 16 17 19 22 23 25 26 27 29 32 35 37 39 40 42 44 46 48 49 48 48 48 48 46 44 42 42 40 37 35 36 40 42
29 28 28 28 29 29 27 26 28 29 29 28 22 18 17 15 14 15 14 13 13 12 13 15 14 12 11 12 13 15 15 15 14 13 12 12 12 11 11 11 11 10 8 7 7 9 11 12 13 14 16 18 19 18 18 18 20 21 23 25 26 27 29 31 33 35 37 39 41 43 46 48 49 50 50 50 50 48 46 44 43 41 38 38 40 42
29 28 28 28 28 27 25 25 28 29 29 25 20 19 18 14 13 14 13 12 12 11 11 11 10 10 11 12 13 14 14 15 14 13 13 12 12 12 12 12 12 12 11 9 8 9 10 11 12 13 15 16 19 20 21 21 20 21 21 23 24 26 27 28 30 32 34 36 38 40 42 45 47 49 50 51 52 51 50 48 46 45 43 41 41 42
29 28 27 27 27 26 25 25 27 29 28 24 20 19 17 14 14 13 11 10 10 10 8 8 7 9 10 12 14 14 13 14 13 13 12 11 11 11 12 12 12 11 10 9 9 9 10 11 12 13 15 15 17 19 21 22 23 23 23 23 23 24 25 26 27 29 31 34 36 37 39 41 43 46 48 50 51 52 52 50 48 48 48 45 42 42
29 27 26 26 25 25 25 26 28 29 27 22 18 16 16 15 13 10 10 10 9 9 8 7 7 8 8 10 13 15 14 14 13 12 12 11 11 12 12 12 12 11 10 10 10 10 11 12 13 13 14 15 16 18 19 21 23 24 26 26 26 26 26 27 27 28 30 32 34 36 37 39 40 42 45 46 47 49 50 50 48 48 49 49 45 43
28 26 26 26 25 25 26 27 28 28 26 20 14 13 16 17 13 9 8 10 9 8 7 6 6 7 7 7 10 13 13 13 13 12 12 12 13 13 14 14 13 12 11 11 11 11 12 13 14 15 15 15 16 17 18 19 21 23 26 28 29 30 30 30 29 30 31 32 33 35 36 37 39 40 42 43 44 45 46 47 48 47 48 50 49 47
27 25 26 26 25 26 27 27 25 25 25 20 13 12 16 18 15 11 9 10 10 8 8 7 7 7 7 7 8 11 13 13 13 13 13 14 15 16 17 16 16 16 15 14 14 14 15 16 17 17 17 17 17 18 19 20 21 22 24 27 29 31 33 34 34 33 33 33 34 35 37 38 39 40 41 43 44 45 44 44 45 46 47 49 51 49
27 26 26 26 27 27 27 27 25 26 25 20 14 14 16 17 16 14 11 11 10 8 8 8 7 6 8 8 8 10 12 14 15 16 16 17 18 18 19 18 19 18 18 17 17 17 18 19 19 19 19 19 19 19 20 21 22 24 25 26 28 30 32 34 36 37 37 37 37 37 38 39 40 41 42 43 44 46 46 45 44 44 45 48 50 51
27 27 27 28 27 26 26 27 27 26 24 20 16 15 16 17 17 15 13 11 10 9 8 8 7 6 9 9 10 11 13 15 17 18 19 20 20 20 20 20 20 21 21 20 20 20 21 21 22 22 22 21 22 22 23 24 24 25 27 28 28 29 30 32 34 37 39 40 41 41 41 41 42 42 43 44 45 47 48 49 48 45 44 45 48 50
29 29 29 28 27 27 27 27 26 24 22 19 17 15 17 18 17 16 14 12 10 10 10 9 8 9 11 12 12 13 15 16 18 19 21 22 22 22 23 23 24 25 25 24 24 25 25 25 25 25 25 25 26 27 28 28 28 28 29 29 30 31 32 32 33 34 36 38 41 43 44 44 44 44 45 46 47 48 49 51 51 50 47 45 46 49
30 30 30 30 29 28 28 26 25 24 21 19 17 16 18 18 17 16 15 13 12 12 12 12 11 11 13 14 15 17 18 19 21 23 23 24 24 25 26 27 29 30 30 29 29 29 30 30 30 30 30 29 30 31 32 31 31 31 32 32 32 33 33 34 35 35 36 37 38 40 42 45 46 47 48 49 50 51 52 52 53 54 53 49 48 48
31 30 31 31 29 28 27 26 25 22 19 18 17 17 18 18 17 16 14 13 13 13 14 15 14 14 15 17 18 19 21 23 25 27 28 28 29 30 30 31 32 32 33 33 33 33 34 34 34 35 35 34 33 34 35 34 34 34 33 34 34 35 36 36 37 37 38 38 39 40 41 42 44 47 50 52 53 54 55 55 56 57 57 56 53 51
32 30 30 29 28 28 27 26 24 21 19 18 18 18 19 18 17 16 15 15 14 14 15 16 17 17 18 18 20 21 24 26 27 28 31 33 33 34 34 35 36 36 36 37 37 37 37 38 38 38 39 38 38 37 37 37 37 37 36 36 36 37 38 38 39 39 40 40 41 42 43 44 45 46 48 51 54 56 58 58 59 59 60 60 59 56
32 31 29 28 27 26 27 26 23 21 20 19 19 19 19 18 17 16 16 16 15 16 17 17 18 19 20 21 21 23 25 27 27 29 32 34 34 36 38 39 40 40 41 41 41 41 41 41 40 39 40 40 40 40 40 40 41 41 42 42 41 41 41 41 41 41 41 42 44 45 46 47 48 48 49 51 52 55 58 60 61 62 63 63 63 62
32 32 29 26 25 24 26 26 22 20 20 20 20 19 19 18 17 17 17 17 18 18 19 19 20 21 22 22 23 24 26 25 22 22 25 27 29 32 38 41 40 40 41 42 42 41 41 41 40 40 40 41 42 42 42 42 43 44 45 45 45 45 46 46 45 45 46 48 50 51 52 53 53 53 53 53 54 55 57 59 61 63 65 66 66 66
32 31 27 24 24 24 25 23 20 19 19 19 19 19 19 18 18 18 18 19 20 20 21 22 22 22 24 24 25 26 25 21 18 19 23 26 28 29 32 37 39 38 39 41 42 42 44 45 45 45 45 45 44 45 45 45 46 47 47 48 49 49 50 51 52 53 54 55 55 56 56 57 57 57 57 58 58 58 59 59 61 63 65 67 68 69
30 28 24 22 23 24 23 20 18 18 18 18 19 19 18 18 18 19 19 20 21 21 22 23 23 25 26 27 28 28 26 23 23 26 29 30 30 32 34 36 38 38 40 42 43 44 48 52 53 51 51 50 50 51 51 51 52 53 53 54 54 55 55 56 57 58 58 58 58 58 58 57 58 59 61 62 63 63 62 62 62 63 65 67 69 70
26 25 22 22 23 22 20 18 17 18 17 18 19 19 18 19 19 20 20 21 21 22 23 25 26 28 28 27 30 31 29 26 24 25 30 33 35 38 41 42 44 45 46 47 48 49 53 56 56 55 55 56 57 58 59 59 59 59 60 60 60 61 61 60 60 60 60 59 59 58 58 59 60 61 62 64 66 67 67 66 66 66 66 67 68 70
24 23 22 22 22 20 18 17 17 17 18 19 20 20 20 20 21 22 22 23 23 24 26 26 28 30 28 27 31 34 32 30 28 29 35 40 41 42 45 49 52 54 54 53 53 55 58 60 60 60 61 62 63 64 64 64 64 64 65 65 65 65 65 64 63 62 62 61 59 59 59 60 60 61 62 63 66 68 69 69 69 69 70 70 69 70
23 22 21 21 20 18 17 17 18 19 19 19 20 21 21 22 23 24 24 25 26 27 28 28 30 32 30 29 34 36 35 36 38 39 43 44 44 46 48 51 54 56 58 58 59 61 63 64 64 65 66 66 66 67 67 67 67 67 67 67 67 67 66 66 65 65 64 63 62 61 61 60 61 61 61 62 63 66 68 69 70 71 72 72 72 72
21 19 18 19 18 17 17 17 19 19 19 19 21 22 23 24 25 26 27 28 29 30 31 32 34 35 35 35 38 40 41 43 45 46 47 48 50 52 53 54 55 57 59 61 62 64 66 66 67 67 67 67 68 68 68 68 68 68 68 68 68 68 68 67 67 66 65 65 64 63 62 62 62 62 61 61 62 64 65 67 69 70 71 72 72 73
16 16 16 16 16 16 17 18 19 19 20 21 22 23 24 26 27 28 29 30 31 33 34 36 38 39 40 41 43 45 46 48 49 49 50 52 53 55 55 56 57 58 60 61 63 65 66 67 68 68 68 68 68 68 68 68 68 68 68 67 67 68 68 67 67 67 66 66 65 64 64 63 63 63 63 63 63 63 64 65 66 67 68 69 71 72
14 13 14 14 15 16 17 19 19 20 21 22 23 24 26 27 29 30 31 32 34 35 37 38 40 42 43 45 47 48 50 51 52 52 52 53 55 56 57 58 60 61 63 64 66 66 67 68 69 69 69 69 69 69 69 69 68 68 68 68 68 68 68 68 68 67 67 67 66 66 65 65 65 64 64 64 63 64 64 65 65 66 66 68 69 71
12 12 13 14 15 16 17 18 19 20 22 23 25 26 28 29 31 32 33 34 35 37 39 40 42 44 46 47 49 50 52 53 53 52 52 55 57 59 61 62 63 65 66 67 68 68 68 69 70 70 70 70 70 70 70 70 70 69 69 69 68 68 68 67 67 67 67 66 66 66 65 65 65 65 65 64 64 64 64 65 65 65 66 67 68 70
12 12 13 14 15 16 17 18 20 21 22 24 26 28 30 31 33 34 35 36 37 39 41 43 44 46 48 49 50 51 52 54 55 54 55 58 61 62 63 64 65 66 68 68 69 70 70 71 71 71 72 72 72 71 71 71 70 69 68 68 67 67 67 66 66 66 65 65 65 65 65 65 65 65 64 64 64 64 64 64 65 65 65 66 67 69
12 13 13 14 15 16 17 19 21 22 24 26 28 29 31 33 34 36 37 38 40 42 44 45 47 48 49 50 51 53 54 57 59 59 60 61 62 63 64 66 67 68 69 70 70 71 71 72 72 72 71 71 71 70 70 69 68 67 67 67 67 67 67 66 66 66 66 66 66 66 66 66 66 65 65 65 65 65 65 65 65 65 65 66 68 69
12 13 13 14 15 17 20 22 23 25 26 28 29 31 33 34 36 38 40 41 43 44 45 47 48 49 50 52 54 56 58 59 61 62 63 64 64 65 66 67 68 69 70 70 71 71 71 70 70 69 69 69 69 68 69 69 68 68 68 68 68 68 68 68 68 68 68 69 69 69 68 68 68 68 67 67 67 67 66 66 67 67 67 68 69 69
13 14 15 16 18 20 22 24 25 27 29 30 31 33 35 37 39 40 41 43 44 45 47 48 50 51 53 55 57 59 60 61 62 64 65 66 66 67 68 68 69 69 69 69 69 68 68 68 68 68 68 69 69 69 69 70 69 69 69 69 69 69 69 69 69 70 70 70 71 71 71 71 71 70 70 70 69 69 69 69 69 69 69 70 71 70
15 16 17 19 20 22 24 25 27 29 30 32 33 36 38 39 40 40 42 44 46 47 48 50 52 54 56 58 59 60 61 62 64 64 65 66 66 67 67 67 66 66 66 65 66 66 67 67 67 68 69 70 70 70 71 71 71 71 71 71 71 71 71 71 71 72 72 72 73 73 73 73 73 73 72 72 71 71 71 71 71 71 71 72 72 72
17 18 19 21 22 23 25 27 28 30 32 34 36 38 40 41 41 42 43 46 47 49 51 53 55 57 58 59 60 61 62 63 64 64 65 65 64 64 63 63 62 62 63 64 64 66 67 68 68 69 70 71 72 72 73 73 73 74 74 74 74 74 74 74 74 74 74 75 75 75 75 76 76 75 75 75 74 73 73 72 72 71 71 71 72 72
18 19 20 22 23 25 26 28 31 33 35 37 39 40 40 41 42 44 46 48 50 52 54 56 57 58 59 60 61 62 62 63 63 62 62 61 61 60 60 60 61 62 63 65 66 67 68 69 70 71 72 73 74 74 74 75 75 76 76 76 76 76 76 76 76 76 76 76 76 76 77 77 77 77 77 76 76 75 75 74 73 72 71 71 71 72
20 21 22 24 26 27 29 31 33 35 37 38 39 40 41 43 45 47 49 51 53 55 56 58 59 60 61 61 61 61 61 61 60 60 59 58 58 59 60 61 63 64 66 67 69 70 71 72 73 74 75 75 76 76 76 77 77 77 77 77 76 76 75 75 74 74 73 73 73 73 73 73 74 74 74 74 74 75 74 74 73 72 72 72 72 72
21 23 24 26 28 30 32 34 35 36 37 38 39 41 43 46 48 50 52 54 56 57 58 59 60 60 61 61 60 60 59 58 58 58 58 58 59 61 62 64 66 68 69 71 73 74 75 75 76 76 76 77 77 77 77 76 76 75 74 72 71 70 69 68 67 66 66 65 65 64 64 64 64 65 65 65 66 67 67 68 69 69 69 70 70 70
24 25 27 29 31 33 34 36 36 37 38 39 41 44 46 49 51 53 54 56 57 58 59 60 60 60 60 59 59 58 57 57 57 58 59 61 62 64 65 67 69 72 73 75 76 76 77 77 77 76 76 75 75 74 72 71 69 67 65 64 62 61 60 59 58 57 57 56 55 54 54 53 53 53 53 53 53 54 55 56 58 59 60 61 62 63
26 28 30 32 33 34 35 36 37 38 40 42 45 47 49 51 53 55 56 57 58 59 60 60 59 59 58 58 57 57 57 57 59 60 62 63 65 67 68 70 73 75 76 76 76 76 76 75 74 73 71 69 67 65 63 61 59 57 56 54 53 52 50 49 49 48 47 46 45 44 43 42 42 42 42 41 42 43 44 45 46 47 49 51 53 54
29 31 32 34 34 35 35 36 38 40 43 45 48 50 52 54 55 56 57 58 59 59 59 58 58 57 57 56 56 56 58 59 61 62 64 65 67 69 71 73 75 76 76 75 74 73 71 69 67 65 63 60 58 56 54 52 50 49 47 46 44 42 41 40 39 38 37 37 36 35 35 35 35 35 35 35 35 36 37 37 38 39 41 43 45 46
31 33 34 34 35 35 37 39 41 43 46 48 50 52 54 55 56 57 58 58 58 57 57 57 56 55 55 55 56 57 59 61 62 64 65 67 70 72 74 75 76 75 73 71 69 66 64 62 59 57 54 52 49 48 46 44 42 41 39 38 36 35 34 33 32 31 31 31 31 31 31 31 31 31 31 31 31 32 32 33 33 34 36 37 39 40
33 34 34 34 35 37 39 42 44 47 49 51 53 54 55 56 57 57 57 56 56 56 55 54 54 54 54 55 56 58 60 62 64 65 68 70 72 73 75 75 73 71 68 64 62 59 56 54 51 49 46 44 42 41 39 37 36 34 33 32 31 30 29 29 29 28 28 29 29 29 29 30 30 30 30 30 30 30 30 30 30 31 32 33 34 35
Wind_Direction
302 304 307 307 307 306 308 312 313 314 316 317 318 317 316 316 315 315 315 316 317 318 316 310 314 317 313 313 311 309 306 301 294 284 277 271 264 253 241 237 243 248 246 246 246 243 239 235 233 232 231 232 231 231 229 228 228 226 226 221 217 220 224 226 230 230 232 234 230 229 228 228 230 235 239 238 235 238 238 233 233 237 244 244 236 227
301 303 305 306 304 304 307 310 312 314 315 316 315 315 315 315 315 315 315 315 316 317 316 314 317 319 315 313 312 312 311 307 300 288 279 273 263 248 242 239 240 245 247 247 246 243 241 237 235 232 229 230 230 229 228 227 227 226 225 224 220 220 223 227 229 230 231 229 226 227 225 225 229 232 237 238 235 235 236 236 236 237 245 250 244 236
300 302 304 304 302 304 308 310 312 314 314 313 313 314 314 314 316 316 314 313 315 316 315 317 321 321 317 315 316 318 317 313 306 296 285 275 267 255 248 245 244 246 246 245 245 242 241 239 237 235 231 229 229 229 228 226 227 227 226 225 224 222 224 226 227 228 229 224 224 232 230 224 224 227 235 238 236 234 234 234 234 233 239 244 241 236
299 301 303 302 301 305 308 310 312 313 313 313 313 315 313 314 316 314 311 310 314 315 315 322 326 321 319 319 319 321 321 319 313 304 295 282 273 264 256 251 247 246 245 243 243 241 240 240 239 238 235 232 230 229 228 227 227 227 227 227 226 225 224 225 225 226 227 224 223 232 236 229 224 227 235 238 234 230 232 236 238 236 237 240 238 233
298 300 300 299 301 306 309 311 312 311 313 314 315 316 314 314 315 312 309 309 314 316 318 324 322 311 313 314 316 322 325 324 320 315 306 293 281 271 262 256 250 245 243 241 240 240 239 238 238 239 239 237 234 232 230 229 228 228 228 228 228 227 225 224 224 224 226 227 226 229 235 234 231 233 236 236 233 231 234 239 240 238 237 239 238 234
296 297 297 298 302 306 309 311 311 312 314 316 316 316 315 315 314 312 310 310 316 318 317 319 315 311 315 314 317 325 327 327 325 322 315 304 293 282 271 261 253 247 243 240 238 238 238 238 238 238 239 239 238 236 233 231 230 229 229 229 230 229 227 224 223 224 225 229 231 232 234 234 234 237 238 236 235 237 240 242 240 238 237 239 240 236
294 294 295 299 304 307 309 310 311 313 316 317 317 316 314 313 312 311 310 311 317 317 314 315 317 320 320 317 323 326 326 329 328 326 321 310 300 288 278 268 259 254 250 245 241 239 239 238 239 238 239 239 239 239 236 233 232 231 231 230 231 231 230 227 225 225 225 227 231 232 234 234 233 234 238 237 235 238 242 243 243 242 240 239 240 238
291 292 295 300 304 307 309 311 312 315 317 318 316 315 315 313 311 309 309 312 316 313 314 317 322 327 324 320 325 327 328 334 331 328 324 315 307 294 284 275 267 263 260 257 252 248 245 243 242 241 240 239 238 238 237 235 233 232 232 231 232 232 232 231 228 228 227 227 228 229 232 234 233 233 235 235 235 238 242 244 244 244 243 241 239 238
289 292 295 300 304 307 309 311 313 316 317 317 316 317 317 314 310 308 310 315 317 317 322 326 329 334 334 328 329 332 333 338 337 331 326 319 311 301 293 286 280 275 269 267 264 258 253 251 249 247 246 244 242 240 238 236 234 233 233 232 232 232 233 233 232 231 230 230 229 229 229 230 231 232 233 233 233 236 241 243 243 243 243 242 242 242
288 291 295 300 305 307 309 312 315 316 316 316 317 320 320 313 309 310 315 319 322 327 334 338 337 341 345 339 337 340 342 343 340 335 330 325 315 306 300 294 289 284 278 274 270 265 259 257 256 253 252 250 247 244 241 238 236 234 233 233 233 233 233 234 234 233 232 231 231 231 230 229 229 230 232 232 232 234 239 242 242 243 242 242 243 246
287 291 296 301 305 307 310 313 315 314 315 316 320 324 320 312 311 316 321 322 326 336 344 344 345 351 357 350 342 343 352 350 340 336 337 331 320 308 299 292 289 287 286 282 276 270 263 258 259 259 258 255 253 251 247 244 240 237 234 233 234 234 234 235 235 236 234 233 232 232 232 231 230 230 231 231 231 233 237 241 243 245 243 241 242 246
287 292 297 302 305 308 311 314 314 313 315 317 323 327 318 312 316 323 326 325 332 346 350 349 353 358 360 357 352 357 11 9 347 339 337 333 326 312 300 293 288 288 289 285 279 273 266 258 254 257 261 262 260 257 254 251 248 244 240 236 235 235 235 235 236 237 236 235 233 233 233 233 232 232 233 232 232 233 236 239 243 246 244 241 241 244
288 293 298 303 306 309 312 315 313 312 314 317 325 329 316 309 316 325 328 325 335 350 352 356 2 2 0 1 6 16 22 21 8 352 342 338 334 324 316 311 304 301 295 288 281 276 271 262 252 250 254 259 264 264 261 257 254 252 249 244 240 238 237 237 237 237 238 237 236 235 235 235 234 235 237 237 235 234 235 238 242 246 246 243 240 240
289 294 299 303 306 309 314 315 310 311 314 318 327 327 309 306 315 321 322 322 337 353 355 2 8 5 5 8 14 23 27 28 26 18 12 10 7 2 359 359 358 354 333 307 293 283 279 272 260 252 249 250 255 260 263 262 259 256 254 251 248 245 243 241 240 238 238 239 239 238 237 237 237 237 239 242 242 239 238 239 241 243 246 246 242 240
289 294 299 302 306 311 315 313 308 310 313 318 327 318 300 300 307 309 311 319 337 354 0 8 12 9 8 9 14 22 27 30 32 30 29 28 28 28 28 28 30 26 17 353 320 300 293 286 276 266 257 252 251 252 256 260 263 262 258 256 253 251 250 250 248 245 242 241 241 241 241 240 240 240 241 244 247 247 244 242 242 242 244 246 246 244
290 294 298 303 309 314 314 309 306 308 312 320 324 308 296 297 299 300 306 315 328 346 3 12 10 9 12 8 8 15 21 27 31 30 28 26 23 24 25 27 29 27 20 6 344 325 314 304 296 288 278 268 260 256 254 254 257 261 263 262 258 254 253 254 255 253 250 247 245 244 243 243 243 243 243 244 247 250 250 249 247 245 244 245 246 246
289 294 299 305 312 315 310 305 305 307 312 320 317 303 297 295 294 297 303 310 320 332 352 10 9 9 12 4 357 2 12 18 22 23 20 14 9 8 10 14 18 15 8 358 345 333 323 312 303 297 293 288 280 272 266 260 256 256 258 262 262 258 254 253 255 256 255 253 250 248 246 245 245 244 245 245 246 248 251 252 251 248 246 245 245 245
288 294 301 308 313 312 305 302 304 305 310 316 313 305 299 293 291 294 299 306 315 322 334 360 11 11 13 358 343 348 2 9 12 14 8 2 357 355 358 3 6 4 357 349 336 325 319 312 305 299 295 292 289 285 280 275 269 263 259 259 259 259 256 253 252 253 254 254 253 251 249 248 247 246 245 246 246 247 249 251 252 249 247 246 245 244
288 297 304 308 311 307 301 302 305 305 310 314 309 296 290 289 293 293 291 297 303 310 322 348 7 4 10 0 333 337 352 357 0 2 357 352 349 348 350 353 354 351 346 339 328 319 313 308 304 302 299 295 291 288 285 282 278 273 268 264 261 260 258 255 252 251 251 252 253 252 251 250 249 248 246 245 245 245 246 249 250 249 247 245 245 244
290 301 304 305 305 301 298 302 304 305 309 312 304 287 280 283 288 289 287 288 292 304 315 336 7 359 346 349 335 333 341 346 348 350 347 346 345 343 343 342 341 340 337 333 326 318 312 307 303 302 300 298 295 292 289 285 281 277 273 270 266 263 261 260 257 254 252 252 252 253 251 250 248 248 247 246 244 242 242 245 248 249 248 245 245 245
294 300 301 301 301 299 298 301 303 302 305 305 297 285 277 276 278 278 280 282 287 301 307 324 360 347 319 329 338 333 334 336 338 339 339 340 339 337 335 331 329 327 326 324 319 312 307 303 301 300 299 297 295 291 286 283 280 278 275 273 270 268 265 263 261 260 257 255 254 254 253 252 250 249 248 247 245 243 242 242 245 248 248 247 245 245
295 297 298 298 297 295 295 298 299 299 299 295 286 276 269 268 270 271 275 277 284 298 305 319 341 327 311 324 332 330 329 329 330 331 332 333 332 328 324 319 317 316 315 312 308 303 300 298 297 296 295 294 292 288 284 280 277 275 274 273 272 271 269 266 264 262 261 259 258 256 256 255 254 252 251 250 248 246 244 243 245 247 248 247 245 245
292 294 296 296 294 292 293 295 296 294 292 284 275 268 262 261 264 267 273 283 294 307 313 318 327 321 317 325 326 324 324 323 323 324 324 323 321 318 314 311 310 310 309 307 304 303 302 301 299 296 295 293 290 286 283 281 278 276 273 272 271 270 269 268 267 265 263 261 260 258 257 257 256 256 255 253 252 251 248 247 246 247 248 246 245 244
289 292 294 294 293 292 292 293 292 289 285 277 269 264 260 259 260 264 272 285 298 306 309 312 320 318 316 322 322 319 320 321 322 322 320 317 314 310 308 307 308 308 307 305 304 304 303 302 300 299 297 295 291 286 284 283 280 277 274 272 270 269 268 267 267 266 265 264 263 261 260 258 257 256 256 255 254 253 252 250 249 249 249 247 244 242
287 290 292 292 291 291 293 293 290 284 277 272 266 260 259 259 262 268 276 285 293 300 303 307 314 315 314 317 317 316 319 320 321 320 317 315 311 307 306 305 305 304 303 302 301 301 300 300 299 299 299 297 294 289 286 285 284 282 279 277 275 273 271 270 268 267 267 266 265 264 263 261 258 256 255 255 254 253 253 252 251 251 250 250 247 244
285 288 288 287 287 290 293 293 289 283 275 269 262 257 258 262 267 274 280 285 291 297 298 301 305 308 309 311 312 315 316 316 318 320 320 319 314 308 305 304 302 300 299 299 298 297 297 297 297 297 297 297 295 292 289 286 284 284 285 284 282 279 276 275 273 272 271 269 268 266 264 263 261 259 257 255 255 254 253 253 252 252 252 252 251 248
284 285 283 282 284 288 289 286 282 278 272 266 259 256 260 266 273 278 281 285 291 293 294 296 300 302 303 306 311 313 313 315 318 321 322 321 315 308 305 302 300 299 300 298 296 295 297 298 298 298 297 296 293 291 288 285 282 281 281 282 282 281 279 277 275 275 275 275 275 272 269 265 263 261 259 258 256 255 255 254 253 252 252 252 252 252
282 281 280 282 285 285 282 279 274 268 263 260 258 258 262 269 275 280 283 288 291 292 294 296 298 299 300 303 307 306 307 311 311 307 307 305 301 301 303 301 299 302 303 300 297 297 299 301 300 300 299 297 294 290 287 284 282 280 279 279 279 278 276 275 274 274 275 276 276 275 273 270 266 263 261 259 258 257 256 255 254 253 252 252 252 253
278 278 281 285 285 280 276 273 270 263 259 257 257 258 262 268 275 279 282 285 287 289 292 293 294 295 294 296 299 299 301 304 299 292 292 289 283 283 287 290 293 298 300 298 296 297 301 302 301 300 299 297 293 290 287 284 283 282 282 280 279 278 276 275 273 273 274 274 273 273 272 270 268 265 263 261 259 258 256 255 255 254 253 252 252 252
275 279 284 284 279 275 272 269 265 262 260 259 259 260 264 268 272 275 278 280 283 286 287 287 287 286 288 294 299 298 299 301 298 293 290 285 278 270 268 272 281 289 292 292 292 295 300 300 299 298 297 295 292 290 288 286 285 284 284 283 281 280 279 277 276 275 275 274 273 271 269 268 266 265 263 261 260 259 258 256 255 255 254 253 252 251
278 282 284 279 273 270 268 265 262 262 262 263 264 265 269 271 272 273 275 276 278 279 279 281 283 285 290 297 297 295 295 294 287 280 280 283 281 273 269 271 277 283 286 287 288 290 293 294 293 292 292 290 290 289 289 288 287 286 285 284 284 283 281 280 279 278 276 275 273 271 269 267 265 264 263 261 260 259 259 258 258 257 255 254 252 251
281 281 278 272 268 266 263 261 260 261 263 266 269 271 272 273 273 274 274 274 275 276 278 282 285 287 292 294 290 289 291 287 277 271 276 282 282 277 274 275 278 281 282 282 283 285 287 288 287 287 287 287 287 287 287 287 286 286 285 284 284 284 283 282 281 280 279 277 275 273 271 269 267 266 264 262 260 259 258 257 258 259 258 256 254 252
279 276 271 265 262 261 260 260 261 262 264 268 272 273 274 275 275 275 276 277 279 280 282 283 284 285 288 288 286 286 287 284 280 278 279 279 279 279 279 279 279 280 280 279 280 282 284 285 285 286 286 286 286 286 286 286 286 286 286 285 285 284 284 283 282 281 280 278 277 275 274 272 271 269 267 265 263 261 259 258 258 259 259 258 257 254
274 267 260 256 256 258 259 260 262 264 267 270 272 274 275 276 277 278 280 282 284 285 287 287 287 289 289 288 286 286 285 285 284 284 283 282 282 283 284 283 282 282 281 280 280 282 283 285 286 286 286 286 287 287 287 287 286 286 286 285 285 284 284 283 282 281 280 279 277 276 275 273 272 270 269 267 265 263 262 260 260 259 259 258 257 256
261 252 248 249 252 256 259 261 264 268 271 272 273 275 275 276 278 280 283 286 288 290 291 292 292 293 293 291 290 289 289 289 289 289 289 288 288 288 288 288 288 287 286 285 285 285 286 287 287 288 288 288 288 288 287 287 287 286 286 285 284 284 283 283 282 282 281 280 279 277 276 274 273 271 270 268 267 265 263 261 260 259 259 258 258 257
249 247 248 251 253 256 260 264 267 270 271 273 274 276 278 281 284 286 288 290 292 292 293 293 293 293 292 292 292 291 291 291 292 292 293 292 291 292 292 291 291 290 290 289 289 290 290 290 290 290 290 290 290 289 289 288 288 287 287 286 286 285 285 284 284 283 282 281 280 279 278 276 275 273 271 269 268 267 265 263 261 259 258 257 257 257
251 250 251 254 256 259 263 267 270 272 274 277 280 282 284 286 288 289 291 292 292 292 292 291 291 291 291 292 292 293 294 294 295 295 295 294 294 294 294 294 294 293 293 293 293 293 293 292 292 292 292 292 292 292 291 291 290 290 289 288 288 287 286 285 284 284 283 282 281 280 278 277 276 274 273 271 270 268 267 266 264 262 259 257 256 256
250 250 251 254 257 260 264 267 270 273 276 279 281 283 285 287 288 289 291 292 292 292 291 291 291 292 293 294 295 295 296 296 296 296 296 295 296 296 296 296 295 295 295 295 294 294 294 294 294 294 294 294 293 293 292 291 291 290 290 289 288 287 286 285 284 283 282 281 280 279 278 277 276 274 273 272 270 269 268 266 265 263 262 260 257 256
250 252 253 255 259 263 266 268 271 274 276 279 281 284 287 289 291 292 294 294 293 292 292 292 294 296 297 297 297 297 298 298 298 298 298 297 297 297 297 297 296 296 296 296 296 296 296 295 295 295 294 294 293 293 292 291 291 290 289 288 287 287 286 285 284 283 282 281 279 278 277 276 275 274 273 272 270 269 268 267 266 264 263 261 259 257
254 256 259 263 268 271 274 276 278 281 283 285 288 290 292 293 294 295 295 294 293 294 295 297 298 299 299 299 299 299 299 299 299 300 300 299 299 299 299 298 298 297 297 297 297 296 296 296 295 295 294 293 292 292 291 290 289 289 288 287 286 285 284 283 282 281 281 280 279 278 277 275 274 273 272 271 270 269 268 267 265 265 263 262 260 259
261 265 269 273 276 278 281 283 286 288 290 292 294 294 294 294 295 295 295 295 296 298 299 299 300 300 300 300 300 300 301 301 301 301 301 301 301 300 300 299 299 298 298 298 297 297 296 295 295 294 293 292 291 291 290 289 289 288 287 286 285 284 283 282 281 281 280 279 279 278 277 276 275 273 272 271 270 269 267 266 265 264 263 262 261 260
271 275 278 280 281 284 286 289 291 293 294 294 295 295 295 295 296 296 296 297 299 300 300 300 301 301 301 301 301 301 302 302 302 302 301 301 300 300 299 299 299 298 298 297 296 296 295 295 294 293 292 292 291 290 290 289 289 288 287 286 285 284 284 283 282 281 280 280 279 278 278 277 276 275 274 273 271 270 269 267 266 265 263 262 262 261
277 280 282 284 286 289 291 292 293 294 294 294 295 295 296 296 297 298 298 300 301 301 302 302 302 302 302 302 302 302 302 302 301 301 300 300 299 299 298 297 297 296 295 295 295 294 294 294 294 293 292 292 291 290 290 289 289 288 287 286 286 285 284 283 282 282 281 280 279 279 278 277 277 276 276 275 274 273 272 270 269 268 266 265 264 263
280 282 285 287 288 290 291 292 292 292 293 295 296 296 297 298 300 301 302 303 303 303 303 303 303 303 303 303 303 302 302 301 300 300 299 299 298 298 297 297 297 296 296 296 296 296 295 295 294 293 293 292 291 291 290 290 289 288 287 287 286 285 285 284 283 282 281 280 280 279 278 277 277 277 276 276 275 275 274 273 272 271 270 268 267 265
281 284 286 287 289 290 290 291 292 294 295 296 298 299 301 303 304 304 305 305 304 304 304 304 303 303 303 303 302 302 301 301 300 300 300 300 300 300 300 300 300 300 299 299 299 298 297 297 296 295 294 293 292 292 291 290 289 289 288 288 287 286 286 285 284 283 282 281 280 279 279 278 277 277 276 276 276 275 275 274 274 273 272 270 268 266
282 285 286 288 289 291 292 293 295 296 298 300 302 304 305 306 305 305 305 305 305 305 304 304 304 304 304 303 303 303 303 303 303 303 303 304 304 304 304 303 303 303 303 302 301 300 299 298 297 295 295 294 293 292 292 291 291 290 290 289 288 288 287 286 285 285 284 283 282 281 281 280 279 278 277 276 276 275 275 274 274 273 272 271 269 268
284 286 288 290 292 293 295 296 298 301 303 305 306 306 306 306 305 305 305 306 306 306 306 306 305 305 305 306 306 306 306 307 307 307 308 308 307 307 306 306 305 305 304 303 302 301 299 298 297 296 295 294 294 294 293 293 292 292 291 290 290 289 288 287 287 286 285 284 284 283 282 281 280 279 278 277 276 275 274 274 274 273 272 271 270 268
288 290 291 293 295 297 299 301 304 306 307 307 307 306 306 306 306 307 307 307 307 307 307 307 307 307 308 308 309 309 310 310 311 310 310 309 308 307 307 306 306 305 304 303 302 301 300 298 298 297 297 297 296 296 295 295 294 293 292 292 291 291 290 289 288 287 286 286 285 284 283 282 281 280 279 278 277 276 275 274 274 274 273 272 271 270
292 294 295 297 299 301 304 305 307 307 307 307 307 307 307 308 308 309 309 309 309 309 309 309 309 310 310 311 311 312 312 312 311 311 310 309 309 308 308 307 307 306 305 304 303 302 301 300 300 300 299 299 299 298 297 296 296 295 295 294 294 293 292 291 290 289 288 288 287 286 285 284 283 282 281 280 279 278 277 276 276 275 275 274 274 273
295 296 298 300 302 304 306 307 307 307 308 308 308 308 309 310 310 310 310 310 310 310 310 310 311 311 312 313 314 313 313 312 311 311 311 310 310 310 309 309 308 307 306 306 305 304 303 303 303 302 302 301 301 300 300 300 300 299 299 298 298 297 295 294 293 292 292 291 291 290 289 288 286 285 284 283 281 280 279 279 279 278 277 277 276 276
296 297 300 302 305 307 308 308 308 308 309 309 310 310 311 311 311 311 311 311 310 311 311 311 312 313 314 314 314 313 313 313 313 313 312 312 312 311 311 310 309 309 308 308 307 306 306 306 305 305 305 304 304 304 304 304 304 303 303 303 302 301 300 299 298 297 295 294 293 292 291 290 289 288 287 285 283 282 280 280 280 281 281 281 281 280
Height
10986 10985 10984 10982 10979 10976 10975 10973 10971 10969 10966 10964 10962 10960 10957 10955 10953 10949 10946 10944 10943 10944 10944 10942 10942 10942 10939 10937 10937 10936 10936 10937 10937 10936 10936 10936 10939 10945 10942 10937 10937 10935 10934 10934 10936 10937 10938 10938 10939 10940 10940 10940 10941 10942 10943 10944 10945 10946 10948 10951 10953 10955 10957 10958 10959 10960 10961 10962 10963 10965 10966 10966 10967 10967 10967 10967 10967 10968 10969 10969 10970 10972 10973 10973 10973 10974
10983 10983 10982 10980 10977 10974 10973 10972 10969 10967 10965 10962 10960 10958 10956 10954 10951 10948 10944 10942 10941 10940 10939 10938 10938 10937 10935 10933 10932 10932 10932 10932 10932 10932 10932 10932 10933 10937 10935 10933 10932 10930 10931 10931 10931 10932 10933 10934 10935 10935 10936 10936 10937 10938 10940 10941 10942 10943 10945 10947 10949 10951 10953 10954 10955 10956 10958 10959 10961 10962 10962 10963 10963 10964 10964 10965 10965 10966 10967 10968 10969 10970 10970 10970 10971 10972
10980 10979 10979 10977 10974 10972 10971 10970 10967 10965 10963 10961 10959 10957 10954 10952 10950 10947 10943 10940 10939 10938 10936 10935 10934 10933 10930 10929 10928 10927 10927 10927 10927 10926 10926 10927 10927 10928 10928 10928 10927 10926 10927 10927 10927 10928 10929 10930 10930 10931 10931 10932 10933 10935 10936 10938 10939 10940 10941 10943 10946 10947 10949 10950 10952 10953 10954 10956 10958 10959 10960 10961 10961 10961 10962 10962 10963 10964 10965 10966 10966 10967 10967 10967 10968 10969
10977 10976 10976 10973 10971 10970 10969 10967 10965 10963 10961 10959 10957 10955 10953 10951 10950 10947 10943 10939 10938 10936 10934 10933 10933 10931 10927 10926 10925 10924 10924 10923 10922 10922 10921 10921 10922 10922 10922 10922 10922 10922 10923 10923 10924 10924 10925 10926 10926 10926 10927 10928 10929 10931 10933 10935 10936 10937 10938 10940 10941 10943 10944 10946 10948 10950 10951 10953 10955 10956 10957 10958 10959 10959 10959 10960 10960 10961 10962 10964 10964 10964 10964 10964 10965 10966
10974 10973 10972 10970 10969 10968 10966 10964 10962 10960 10959 10957 10955 10953 10951 10948 10947 10945 10941 10937 10936 10934 10932 10933 10933 10930 10926 10924 10923 10922 10921 10919 10918 10918 10917 10917 10917 10917 10917 10918 10918 10918 10919 10919 10920 10920 10921 10921 10922 10922 10923 10924 10926 10927 10929 10932 10933 10934 10935 10936 10937 10938 10940 10942 10944 10946 10948 10949 10951 10952 10953 10955 10956 10956 10957 10957 10958 10958 10959 10961 10961 10961 10961 10962 10963 10964
10971 10970 10969 10967 10967 10965 10964 10961 10959 10957 10956 10955 10953 10951 10948 10946 10943 10941 10938 10935 10934 10933 10931 10931 10930 10928 10925 10923 10921 10920 10918 10917 10915 10915 10914 10913 10913 10913 10914 10914 10914 10915 10916 10916 10917 10917 10917 10918 10918 10919 10919 10921 10922 10923 10926 10928 10930 10931 10932 10933 10933 10934 10936 10939 10941 10943 10944 10946 10947 10949 10950 10951 10951 10952 10953 10954 10955 10956 10956 10957 10958 10958 10959 10959 10960 10962
10969 10967 10966 10965 10964 10963 10961 10959 10956 10955 10953 10952 10950 10948 10946 10943 10940 10937 10935 10933 10934 10932 10930 10928 10927 10926 10924 10921 10919 10917 10916 10914 10913 10912 10912 10911 10910 10910 10910 10911 10911 10912 10912 10913 10913 10913 10914 10914 10915 10915 10916 10917 10918 10920 10922 10924 10926 10928 10929 10929 10930 10931 10933 10935 10937 10939 10940 10942 10944 10945 10946 10947 10948 10948 10949 10950 10952 10953 10953 10954 10955 10956 10957 10957 10958 10960
10965 10964 10963 10963 10962 10960 10958 10956 10954 10952 10951 10949 10947 10945 10943 10940 10937 10934 10932 10931 10932 10930 10927 10925 10925 10924 10923 10920 10918 10916 10914 10913 10911 10910 10910 10909 10908 10908 10908 10908 10908 10909 10909 10910 10910 10910 10910 10911 10911 10912 10913 10913 10915 10916 10918 10920 10922 10924 10925 10926 10927 10928 10930 10932 10934 10935 10936 10938 10940 10942 10943 10944 10945 10945 10945 10946 10948 10949 10951 10952 10953 10954 10955 10955 10956 10957
10962 10962 10961 10960 10959 10957 10955 10953 10952 10950 10949 10947 10945 10943 10940 10937 10934 10931 10930 10929 10929 10927 10925 10924 10923 10922 10921 10918 10916 10914 10913 10912 10910 10909 10908 10907 10907 10906 10906 10906 10906 10907 10907 10908 10908 10907 10908 10908 10908 10909 10909 10910 10912 10913 10914 10916 10918 10919 10921 10922 10923 10925 10926 10928 10930 10931 10932 10934 10935 10937 10939 10940 10941 10942 10942 10943 10944 10946 10947 10949 10950 10951 10952 10952 10953 10954
10960 10959 10958 10958 10957 10955 10953 10951 10949 10948 10947 10945 10943 10940 10937 10933 10931 10929 10928 10927 10926 10924 10923 10923 10922 10920 10919 10918 10915 10914 10914 10913 10910 10907 10906 10906 10905 10905 10904 10904 10904 10905 10906 10906 10906 10905 10905 10906 10906 10906 10907 10907 10909 10910 10911 10912 10914 10915 10916 10918 10920 10921 10923 10924 10926 10927 10928 10929 10931 10933 10934 10936 10937 10938 10938 10939 10940 10942 10943 10945 10947 10948 10948 10949 10949 10950
10957 10956 10955 10955 10954 10952 10951 10949 10947 10946 10944 10942 10941 10938 10934 10931 10929 10928 10927 10926 10924 10923 10923 10922 10921 10920 10919 10918 10917 10915 10914 10913 10910 10906 10905 10905 10904 10904 10903 10903 10904 10904 10905 10905 10905 10904 10904 10904 10904 10904 10904 10905 10906 10907 10908 10909 10910 10911 10913 10914 10916 10917 10918 10920 10921 10923 10924 10925 10927 10928 10930 10931 10932 10933 10934 10934 10936 10937 10938 10940 10942 10944 10944 10945 10945 10946
10955 10954 10953 10952 10951 10950 10948 10947 10945 10943 10942 10940 10939 10936 10932 10929 10927 10927 10926 10925 10924 10923 10923 10922 10920 10919 10918 10918 10917 10915 10913 10912 10909 10906 10905 10904 10903 10903 10903 10903 10903 10903 10904 10904 10904 10903 10902 10902 10902 10902 10902 10903 10904 10904 10905 10906 10907 10908 10909 10910 10912 10913 10914 10915 10917 10918 10919 10921 10922 10923 10925 10926 10927 10928 10929 10930 10931 10932 10933 10935 10937 10938 10940 10941 10942 10942
10952 10952 10951 10950 10949 10947 10946 10944 10942 10941 10939 10938 10937 10935 10931 10928 10927 10926 10925 10925 10924 10924 10923 10921 10920 10919 10918 10918 10916 10913 10911 10910 10908 10906 10904 10904 10903 10903 10902 10902 10903 10903 10903 10903 10903 10901 10900 10900 10901 10900 10901 10901 10902 10902 10903 10903 10904 10905 10905 10906 10908 10909 10910 10911 10912 10913 10914 10916 10917 10919 10920 10921 10922 10923 10924 10925 10926 10928 10929 10930 10931 10933 10934 10936 10937 10938
10950 10949 10949 10948 10947 10945 10944 10942 10939 10938 10937 10936 10935 10933 10930 10928 10927 10926 10926 10925 10924 10924 10923 10921 10921 10920 10918 10918 10916 10913 10911 10909 10908 10906 10905 10904 10904 10903 10903 10903 10903 10903 10903 10903 10902 10900 10899 10899 10899 10899 10899 10899 10900 10900 10901 10901 10901 10902 10902 10903 10904 10905 10906 10906 10907 10909 10910 10911 10912 10914 10915 10916 10917 10918 10919 10920 10921 10923 10924 10925 10926 10927 10929 10930 10932 10933
10947 10947 10946 10946 10945 10943 10942 10939 10937 10935 10934 10934 10933 10931 10929 10928 10927 10926 10925 10925 10923 10923 10923 10921 10921 10920 10919 10917 10915 10913 10912 10910 10909 10908 10906 10905 10905 10904 10904 10904 10903 10903 10903 10903 10901 10900 10899 10898 10898 10897 10897 10898 10898 10898 10898 10899 10899 10899 10900 10900 10901 10901 10902 10903 10903 10904 10906 10906 10907 10908 10910 10911 10912 10913 10914 10915 10915 10917 10919 10920 10921 10922 10924 10926 10927 10928
10945 10945 10944 10943 10942 10941 10939 10937 10934 10933 10932 10932 10931 10928 10927 10927 10926 10925 10925 10924 10923 10922 10922 10922 10921 10921 10919 10917 10916 10914 10913 10911 10910 10909 10908 10907 10906 10905 10905 10904 10904 10904 10904 10903 10901 10900 10899 10897 10897 10896 10896 10896 10896 10896 10896 10897 10897 10897 10897 10898 10898 10899 10899 10899 10899 10900 10901 10902 10903 10903 10904 10905 10906 10907 10909 10909 10910 10911 10912 10914 10916 10917 10919 10921 10922 10923
10942 10942 10942 10941 10940 10939 10937 10934 10933 10931 10931 10930 10929 10926 10926 10926 10925 10924 10924 10924 10923 10922 10922 10922 10922 10921 10920 10919 10917 10915 10914 10912 10911 10910 10909 10907 10907 10906 10906 10905 10905 10905 10904 10903 10901 10900 10899 10897 10896 10895 10894 10894 10894 10894 10894 10894 10895 10895 10895 10895 10895 10895 10896 10896 10896 10896 10896 10897 10897 10898 10899 10900 10900 10901 10902 10904 10905 10906 10906 10907 10909 10910 10912 10914 10916 10917
10940 10940 10940 10939 10938 10936 10934 10932 10930 10929 10929 10928 10927 10925 10924 10923 10923 10923 10923 10922 10922 10922 10921 10921 10921 10920 10919 10919 10918 10916 10914 10913 10912 10910 10909 10908 10907 10906 10905 10906 10906 10905 10905 10903 10902 10900 10898 10897 10895 10894 10894 10893 10893 10892 10892 10892 10892 10892 10892 10892 10892 10892 10892 10892 10892 10892 10892 10892 10893 10893 10894 10894 10895 10896 10896 10898 10899 10900 10901 10901 10902 10904 10905 10907 10909 10911
10937 10938 10938 10936 10936 10934 10931 10930 10928 10926 10926 10926 10926 10925 10923 10921 10921 10922 10922 10921 10921 10921 10920 10920 10920 10920 10919 10919 10918 10917 10915 10913 10912 10911 10909 10908 10906 10905 10905 10905 10905 10905 10904 10903 10901 10900 10898 10896 10895 10894 10893 10893 10892 10891 10890 10890 10889 10889 10888 10888 10888 10888 10888 10888 10888 10888 10888 10888 10888 10889 10889 10890 10890 10890 10891 10892 10893 10894 10895 10896 10896 10897 10899 10900 10902 10904
10935 10937 10936 10934 10933 10931 10929 10928 10927 10924 10923 10924 10924 10923 10922 10920 10920 10920 10920 10920 10919 10919 10919 10919 10920 10920 10920 10918 10917 10916 10915 10912 10911 10910 10908 10907 10905 10904 10903 10903 10903 10903 10902 10901 10900 10899 10897 10896 10894 10893 10892 10892 10891 10890 10889 10888 10887 10886 10885 10884 10884 10883 10883 10883 10884 10884 10884 10884 10884 10884 10884 10885 10885 10885 10885 10886 10887 10888 10889 10890 10891 10892 10893 10894 10896 10898
10933 10934 10934 10931 10930 10928 10926 10926 10925 10923 10922 10922 10921 10921 10920 10919 10918 10918 10918 10918 10918 10918 10918 10918 10919 10919 10918 10917 10916 10915 10913 10911 10910 10908 10907 10906 10905 10903 10902 10901 10900 10900 10900 10899 10898 10897 10896 10895 10893 10892 10891 10890 10889 10889 10887 10886 10885 10884 10882 10881 10880 10880 10879 10879 10879 10879 10879 10880 10880 10879 10879 10879 10880 10880 10881 10881 10882 10883 10884 10885 10886 10887 10888 10888 10889 10891
10931 10930 10930 10929 10928 10926 10924 10923 10922 10921 10920 10919 10919 10918 10918 10917 10916 10916 10917 10917 10917 10917 10918 10917 10917 10917 10916 10915 10914 10912 10911 10910 10908 10907 10906 10904 10903 10902 10901 10900 10899 10898 10897 10897 10896 10894 10893 10892 10891 10890 10888 10887 10886 10885 10884 10883 10882 10881 10880 10878 10877 10876 10876 10875 10874 10874 10874 10874 10875 10874 10874 10875 10875 10875 10876 10876 10877 10878 10879 10880 10880 10881 10882 10882 10883 10884
10927 10927 10926 10925 10924 10923 10922 10921 10919 10918 10918 10917 10916 10916 10916 10915 10915 10915 10915 10915 10916 10916 10916 10916 10916 10915 10913 10912 10911 10910 10909 10908 10907 10906 10904 10903 10902 10900 10899 10898 10896 10895 10895 10893 10892 10891 10890 10889 10887 10886 10885 10884 10883 10881 10879 10879 10878 10877 10876 10875 10874 10873 10872 10871 10870 10869 10869 10869 10869 10869 10869 10870 10870 10870 10870 10870 10870 10871 10871 10872 10873 10874 10875 10876 10877 10877
10924 10924 10923 10921 10920 10919 10918 10918 10916 10915 10915 10914 10914 10914 10914 10913 10913 10913 10914 10914 10914 10914 10914 10914 10914 10913 10911 10910 10909 10908 10907 10906 10905 10904 10903 10901 10900 10898 10897 10895 10893 10892 10890 10889 10888 10887 10885 10884 10883 10881 10881 10880 10878 10876 10874 10874 10873 10872 10871 10870 10870 10869 10867 10866 10866 10865 10864 10864 10864 10864 10864 10864 10864 10864 10864 10863 10863 10863 10863 10864 10865 10865 10866 10868 10869 10870
10920 10921 10920 10918 10917 10916 10915 10914 10913 10912 10912 10912 10912 10912 10911 10911 10912 10912 10912 10913 10913 10913 10912 10911 10911 10910 10909 10908 10906 10905 10904 10904 10903 10902 10900 10899 10898 10896 10894 10892 10890 10888 10886 10885 10884 10882 10881 10880 10878 10876 10875 10875 10873 10871 10869 10869 10867 10866 10866 10865 10864 10863 10862 10861 10861 10860 10860 10859 10859 10858 10858 10857 10857 10857 10856 10855 10855 10855 10855 10856 10856 10857 10858 10859 10860 10862
10917 10918 10917 10916 10915 10914 10912 10911 10910 10910 10910 10910 10910 10910 10909 10910 10910 10910 10911 10911 10911 10911 10910 10909 10908 10907 10906 10905 10904 10903 10902 10901 10901 10900 10899 10897 10895 10892 10890 10887 10885 10882 10881 10879 10878 10877 10876 10875 10874 10872 10870 10869 10868 10866 10864 10863 10862 10860 10860 10859 10858 10857 10856 10855 10855 10854 10854 10853 10853 10852 10852 10851 10850 10850 10849 10848 10847 10847 10847 10848 10848 10849 10849 10850 10852 10853
10915 10914 10914 10913 10913 10912 10910 10909 10908 10908 10907 10907 10907 10908 10908 10908 10909 10909 10909 10909 10909 10908 10907 10906 10906 10905 10903 10902 10902 10902 10900 10899 10898 10898 10897 10895 10893 10889 10885 10882 10879 10876 10875 10873 10872 10871 10870 10869 10869 10867 10865 10864 10863 10861 10860 10858 10857 10856 10854 10853 10852 10851 10850 10849 10848 10848 10847 10847 10846 10846 10845 10843 10843 10842 10841 10840 10840 10839 10838 10839 10839 10840 10841 10842 10843 10844
10911 10910 10909 10910 10909 10909 10907 10906 10906 10906 10905 10905 10905 10906 10906 10907 10907 10907 10907 10906 10906 10905 10904 10903 10903 10902 10901 10901 10900 10899 10898 10896 10895 10894 10893 10893 10892 10888 10882 10877 10873 10871 10869 10867 10865 10864 10863 10863 10863 10862 10860 10859 10857 10856 10854 10853 10851 10850 10849 10848 10847 10845 10844 10843 10842 10841 10840 10839 10838 10837 10836 10835 10834 10834 10833 10832 10831 10831 10830 10829 10830 10831 10832 10833 10834 10835
10908 10906 10906 10906 10906 10905 10904 10903 10903 10903 10903 10903 10904 10904 10904 10905 10905 10905 10904 10904 10903 10902 10901 10900 10899 10899 10898 10898 10897 10894 10893 10893 10892 10890 10889 10888 10887 10885 10880 10873 10870 10867 10865 10862 10859 10858 10857 10857 10856 10856 10855 10853 10851 10849 10848 10846 10844 10843 10842 10841 10840 10838 10836 10835 10834 10833 10832 10831 10830 10828 10827 10825 10824 10824 10824 10822 10821 10821 10821 10821 10820 10821 10821 10823 10825 10826
10905 10903 10903 10903 10902 10902 10901 10901 10900 10901 10901 10901 10901 10902 10902 10903 10903 10902 10902 10901 10900 10899 10898 10897 10896 10896 10895 10894 10893 10890 10889 10889 10888 10886 10884 10882 10881 10878 10874 10869 10866 10863 10860 10857 10855 10852 10851 10850 10849 10849 10848 10846 10843 10841 10840 10838 10837 10835 10834 10833 10831 10829 10827 10826 10825 10823 10822 10821 10820 10818 10817 10816 10814 10814 10813 10812 10811 10810 10810 10811 10811 10811 10811 10812 10814 10816
10901 10901 10900 10900 10899 10899 10898 10898 10898 10898 10899 10899 10899 10899 10900 10900 10900 10900 10899 10898 10898 10897 10896 10895 10894 10892 10892 10892 10889 10886 10885 10885 10882 10879 10876 10876 10875 10872 10868 10865 10861 10858 10855 10853 10850 10848 10845 10844 10843 10841 10839 10837 10835 10832 10830 10829 10827 10826 10824 10822 10820 10818 10817 10815 10814 10812 10811 10810 10809 10808 10806 10805 10804 10803 10802 10801 10801 10800 10800 10800 10800 10800 10801 10801 10803 10805
10898 10898 10897 10897 10896 10896 10895 10895 10896 10896 10896 10897 10897 10897 10897 10897 10897 10896 10896 10895 10895 10894 10892 10892 10891 10889 10889 10889 10883 10880 10880 10879 10877 10874 10872 10870 10870 10867 10863 10860 10856 10853 10850 10848 10845 10842 10839 10837 10835 10833 10831 10828 10826 10823 10821 10818 10816 10815 10813 10811 10809 10807 10805 10804 10802 10801 10799 10798 10797 10796 10794 10793 10792 10791 10791 10790 10789 10789 10789 10789 10789 10789 10790 10790 10791 10793
10895 10895 10895 10894 10893 10893 10893 10893 10893 10893 10894 10894 10894 10894 10894 10893 10893 10892 10892 10891 10891 10890 10889 10889 10888 10886 10887 10885 10878 10875 10875 10874 10872 10870 10868 10865 10864 10861 10857 10854 10850 10848 10845 10841 10838 10835 10832 10830 10827 10824 10822 10819 10816 10814 10811 10809 10806 10804 10801 10799 10797 10795 10793 10792 10790 10788 10787 10785 10784 10784 10782 10782 10781 10780 10779 10779 10778 10777 10777 10777 10778 10778 10778 10778 10779 10780
10892 10892 10892 10891 10891 10891 10891 10891 10891 10891 10892 10892 10891 10890 10890 10890 10889 10889 10888 10887 10887 10886 10884 10883 10882 10880 10880 10879 10874 10871 10869 10867 10865 10864 10861 10859 10856 10853 10850 10847 10843 10841 10837 10834 10831 10827 10824 10821 10818 10815 10812 10809 10807 10804 10801 10799 10796 10793 10790 10788 10785 10783 10781 10779 10777 10776 10774 10773 10772 10771 10771 10770 10769 10768 10767 10767 10766 10765 10765 10765 10765 10766 10766 10766 10767 10768
10889 10889 10889 10889 10889 10889 10889 10889 10889 10889 10889 10889 10888 10887 10887 10886 10886 10885 10884 10884 10882 10881 10879 10877 10876 10874 10873 10871 10868 10865 10863 10860 10858 10856 10854 10851 10848 10844 10841 10838 10835 10832 10828 10824 10821 10818 10815 10812 10808 10805 10802 10799 10796 10794 10790 10788 10785 10782 10780 10777 10774 10771 10769 10767 10765 10763 10761 10760 10759 10759 10758 10757 10756 10755 10755 10754 10754 10753 10753 10753 10753 10754 10755 10755 10755 10756
10886 10887 10887 10887 10887 10887 10886 10886 10886 10886 10886 10886 10885 10884 10883 10882 10882 10881 10880 10879 10878 10876 10875 10872 10870 10868 10866 10864 10861 10858 10855 10853 10851 10849 10847 10843 10839 10835 10832 10829 10825 10822 10817 10814 10810 10808 10805 10801 10797 10794 10791 10788 10785 10782 10779 10776 10773 10770 10768 10765 10762 10760 10757 10755 10753 10751 10749 10747 10746 10746 10745 10744 10743 10742 10742 10742 10741 10741 10740 10740 10741 10742 10743 10743 10743 10743
10885 10885 10885 10885 10885 10884 10884 10884 10884 10883 10883 10883 10882 10881 10879 10878 10877 10876 10876 10875 10874 10872 10870 10868 10866 10863 10861 10858 10855 10852 10848 10845 10843 10842 10838 10834 10830 10826 10822 10819 10815 10811 10807 10803 10800 10797 10794 10790 10786 10782 10779 10776 10773 10769 10766 10763 10760 10758 10755 10752 10750 10748 10745 10744 10741 10739 10737 10735 10734 10733 10732 10731 10730 10729 10729 10729 10729 10729 10728 10728 10728 10729 10730 10731 10731 10730
10883 10883 10883 10883 10882 10882 10882 10882 10881 10881 10881 10881 10879 10877 10876 10875 10874 10872 10872 10871 10869 10867 10865 10863 10861 10858 10855 10852 10848 10845 10841 10837 10835 10834 10830 10825 10821 10817 10813 10809 10805 10801 10797 10793 10789 10786 10782 10779 10775 10771 10767 10764 10761 10757 10754 10750 10748 10746 10743 10740 10738 10736 10734 10732 10730 10728 10726 10724 10722 10721 10720 10719 10718 10718 10717 10717 10717 10716 10716 10716 10716 10717 10717 10717 10718 10717
10880 10881 10881 10881 10880 10880 10880 10880 10879 10879 10879 10878 10876 10874 10873 10871 10869 10868 10867 10866 10864 10861 10859 10857 10854 10852 10849 10845 10841 10838 10834 10829 10825 10823 10821 10817 10813 10809 10805 10800 10796 10791 10787 10783 10779 10775 10771 10767 10764 10760 10756 10752 10749 10746 10742 10739 10737 10735 10732 10730 10727 10725 10723 10720 10718 10716 10714 10712 10710 10709 10708 10707 10706 10706 10706 10705 10705 10704 10705 10704 10704 10704 10704 10704 10704 10704
10878 10878 10879 10878 10878 10878 10877 10876 10876 10875 10874 10873 10872 10870 10869 10867 10865 10863 10862 10860 10858 10855 10853 10850 10848 10845 10842 10838 10833 10830 10826 10822 10817 10814 10810 10807 10803 10799 10794 10790 10785 10781 10777 10773 10769 10765 10761 10757 10753 10749 10746 10742 10738 10735 10732 10728 10727 10725 10722 10719 10716 10714 10711 10709 10706 10704 10702 10700 10698 10696 10695 10694 10694 10693 10693 10693 10693 10692 10693 10693 10692 10692 10692 10690 10690 10692
10876 10876 10876 10876 10875 10875 10874 10873 10872 10871 10870 10869 10867 10866 10864 10863 10861 10859 10856 10854 10852 10850 10847 10844 10841 10837 10834 10830 10826 10822 10818 10814 10810 10805 10801 10797 10792 10788 10784 10780 10775 10770 10766 10762 10758 10754 10750 10747 10743 10739 10735 10731 10728 10724 10721 10717 10715 10713 10710 10707 10704 10702 10700 10697 10695 10692 10689 10687 10685 10683 10681 10680 10680 10680 10679 10679 10679 10679 10679 10679 10679 10679 10679 10677 10677 10679
10874 10873 10873 10873 10872 10872 10871 10870 10869 10867 10866 10864 10863 10862 10860 10858 10857 10854 10851 10848 10846 10843 10840 10837 10833 10830 10826 10822 10818 10814 10810 10806 10802 10797 10793 10789 10784 10780 10775 10771 10767 10762 10758 10754 10750 10745 10741 10737 10734 10730 10725 10720 10716 10713 10709 10706 10703 10700 10697 10694 10691 10689 10687 10684 10682 10679 10677 10675 10672 10670 10668 10666 10665 10665 10664 10664 10665 10665 10665 10665 10665 10665 10666 10665 10665 10666
10871 10871 10871 10870 10870 10869 10868 10866 10865 10864 10862 10861 10859 10858 10855 10853 10852 10849 10846 10843 10840 10837 10833 10829 10826 10822 10818 10814 10811 10807 10803 10798 10794 10790 10785 10781 10777 10773 10769 10765 10761 10756 10751 10747 10742 10737 10733 10728 10724 10719 10714 10710 10705 10702 10698 10694 10690 10687 10683 10681 10678 10676 10673 10671 10668 10666 10664 10661 10659 10657 10655 10653 10651 10650 10649 10649 10649 10649 10649 10649 10650 10651 10652 10652 10653 10652
10869 10869 10868 10867 10867 10866 10865 10863 10862 10861 10859 10857 10855 10853 10851 10848 10846 10843 10840 10837 10833 10829 10826 10822 10818 10814 10810 10807 10803 10799 10795 10791 10787 10782 10778 10774 10770 10766 10762 10757 10752 10747 10742 10737 10733 10728 10723 10718 10713 10708 10703 10698 10693 10690 10686 10682 10677 10673 10670 10667 10665 10662 10659 10657 10654 10652 10650 10648 10646 10644 10642 10639 10638 10636 10635 10634 10634 10633 10633 10634 10634 10636 10637 10637 10638 10637
10866 10866 10866 10865 10863 10862 10862 10860 10858 10857 10855 10853 10851 10848 10845 10842 10839 10836 10833 10829 10826 10822 10818 10814 10811 10807 10803 10799 10796 10792 10788 10784 10779 10774 10770 10766 10761 10756 10751 10746 10741 10736 10731 10726 10721 10716 10711 10706 10701 10696 10691 10686 10681 10677 10673 10669 10664 10660 10657 10654 10651 10648 10645 10643 10640 10638 10636 10634 10632 10630 10628 10626 10625 10623 10622 10621 10620 10619 10618 10618 10619 10620 10621 10621 10621 10620
10864 10863 10862 10861 10860 10859 10857 10856 10854 10853 10851 10848 10845 10842 10839 10836 10833 10829 10826 10822 10819 10815 10811 10807 10803 10799 10795 10791 10787 10783 10778 10774 10770 10765 10760 10756 10751 10745 10740 10735 10729 10724 10719 10714 10708 10703 10698 10693 10688 10682 10678 10673 10668 10664 10659 10655 10651 10647 10644 10641 10638 10635 10632 10629 10627 10625 10623 10621 10619 10617 10616 10614 10612 10611 10610 10609 10608 10607 10606 10605 10605 10606 10605 10605 10604 10605
10861 10859 10858 10857 10856 10855 10853 10851 10850 10848 10845 10842 10840 10837 10834 10830 10827 10823 10819 10815 10811 10807 10803 10799 10794 10790 10786 10782 10777 10773 10768 10764 10759 10754 10749 10745 10740 10735 10729 10724 10718 10713 10707 10702 10696 10690 10685 10679 10674 10669 10664 10660 10656 10651 10647 10643 10639 10635 10632 10629 10626 10624 10621 10618 10616 10614 10612 10610 10609 10607 10605 10604 10602 10601 10600 10599 10598 10597 10596 10595 10594 10594 10593 10591 10591 10591
10856 10855 10854 10853 10851 10850 10848 10846 10844 10842 10840 10837 10834 10831 10828 10824 10820 10816 10812 10808 10803 10799 10794 10790 10785 10781 10777 10773 10768 10764 10759 10754 10750 10745 10740 10736 10730 10725 10720 10714 10708 10702 10696 10690 10683 10677 10672 10666 10661 10656 10652 10648 10644 10640 10636 10632 10629 10625 10622 10619 10617 10615 10612 10610 10607 10605 10603 10602 10600 10599 10597 10595 10594 10593 10592 10591 10590 10588 10587 10587 10586 10585 10583 10581 10580 10580
10852 10850 10849 10848 10846 10845 10843 10841 10839 10837 10834 10831 10828 10825 10821 10817 10813 10809 10805 10800 10795 10791 10786 10782 10777 10773 10769 10765 10761 10756 10751 10746 10742 10737 10732 10727 10721 10715 10709 10703 10696 10689 10683 10677 10671 10665 10659 10654 10649 10645 10641 10637 10633 10630 10626 10623 10620 10617 10614 10612 10609 10607 10605 10602 10600 10598 10596 10595 10593 10592 10590 10589 10587 10586 10585 10584 10583 10582 10581 10580 10579 10578 10576 10573 10572 10571
10848 10846 10845 10844 10842 10841 10839 10837 10834 10832 10829 10825 10822 10818 10814 10810 10806 10802 10797 10793 10788 10783 10779 10774 10770 10766 10762 10758 10754 10749 10744 10739 10734 10729 10723 10717 10711 10704 10697 10691 10684 10677 10671 10665 10659 10653 10648 10644 10639 10636 10632 10628 10624 10621 10618 10615 10612 10610 10607 10605 10603 10601 10598 10596 10595 10593 10591 10589 10587 10586 10584 10583 10582 10580 10579 10578 10577 10576 10575 10573 10572 10571 10569 10567 10565 10564
10844 10842 10841 10840 10838 10836 10834 10831 10828 10825 10822 10819 10815 10811 10807 10803 10799 10795 10790 10786 10781 10777 10773 10768 10764 10760 10756 10752 10748 10743 10737 10732 10726 10720 10714 10707 10701 10694 10686 10679 10672 10666 10660 10654 10649 10644 10639 10635 10631 10627 10624 10620 10617 10614 10611 10609 10606 10604 10601 10599 10597 10595 10593 10591 10589 10588 10586 10584 10582 10581 10579 10577 10576 10575 10573 10572 10571 10570 10569 10568 10567 10565 10563 10561 10559 10558